MAZAALAI (NUMSAT-1) (42822 NORAD) Tracking and Keplerian Element Data

This shows tracking and keplerian element data for the satellite.

Feedback or suggestion? Click here.




ElementValue
Catalog42822
NameMAZAALAI (NUMSAT-1)
Epoch Orbit9727
Epoch Day78.68668735
Epoch Year2019
RAAN22.7654
Inclination51.6304
Eccentricity0.0004621
Argument of Perigee138.3052
Mean Anonmoly221.8307
Mean Motion15.90095201
Decay Rate0.00110675
L11 42822U 98067MW 19078.68668735 .00110675 15595-4 36913-3 0 9996
L22 42822 51.6304 22.7654 0004621 138.3052 221.8307 15.90095201 97270

Live tracking and technical data element details for MAZAALAI (NUMSAT-1) (NORAD 42822). MAZAALAI (NUMSAT-1) can be tracked NOW for your location showing map with azimuth and elevation plus other details from your city location.

Track the satellite on the map from your city or location and see movement details for azimuth, elevation, latitude, longitude, range, height, and movement on the map or in text.







IsCatalogInMostPopularTable: catalog: 42822, numindb: 209
Update: records affected: 1



GetName: 42822 MAZAALAI (NUMSAT-1)

Hit Count: updated at: Thu, 21 Mar 2019 02:03:36 GMT